This demonstration page uses our WeatherBlox Daily Observations layout. Learn more.

Left ArrowRight Arrow

39.51506, -84.39828

Hourly Observations for July 26, 2021

Temp ( °F °C ) Dew Point ( °F °C ) Humidity (%) Winds ( mph kmh ) Pressure ( in mb ) Visibility ( mi km ) Precip ( " mm )
12:15 am 00:15 Hazy 73 23 N/A N/A N N/A 29.94 1014 5 8 N/A
12:35 am 00:35 Mostly Cloudy with Mist and Fog 72 22 N/A N/A N N/A 29.95 1014 1 2 N/A
12:55 am 00:55 Mostly Cloudy with Fog 72 22 N/A N/A SE 3 6 29.95 1014 1 1 N/A
1:15 am 01:15 Mostly Cloudy with Haze 72 22 N/A N/A N N/A 29.96 1015 5 8 N/A
1:35 am 01:35 Hazy 72 22 N/A N/A N N/A 29.96 1015 4 6 N/A
1:55 am 01:55 Mostly Cloudy with Mist and Fog 72 22 N/A N/A N N/A 29.95 1014 4 6 N/A
2:15 am 02:15 Cloudy with Haze 72 22 N/A N/A N N/A 29.95 1014 5 8 N/A
2:35 am 02:35 Mostly Cloudy with Haze 72 22 N/A N/A SE 3 6 29.95 1014 7 11 N/A
2:55 am 02:55 Cloudy 72 22 N/A N/A SE 5 7 29.95 1014 7 11 N/A
3:15 am 03:15 Cloudy 72 22 N/A N/A N N/A 29.95 1014 7 11 N/A
3:35 am 03:35 Clear 72 22 N/A N/A N N/A 29.95 1014 10 16 N/A
3:55 am 03:55 Hazy 72 22 N/A N/A SE 3 6 29.95 1014 7 11 N/A
4:15 am 04:15 Hazy 72 22 N/A N/A NNE 3 6 29.95 1014 5 8 N/A
4:35 am 04:35 Hazy 72 22 N/A N/A N 3 6 29.95 1014 5 8 N/A
4:55 am 04:55 Hazy 70 21 N/A N/A N 3 6 29.95 1014 7 11 N/A
5:15 am 05:15 Clear 70 21 N/A N/A NNE 3 6 29.95 1014 7 11 N/A
5:35 am 05:35 Mostly Cloudy with Haze 72 22 N/A N/A N N/A 29.96 1015 7 11 N/A
5:55 am 05:55 Clear 72 22 N/A N/A NNE 5 7 29.96 1015 7 11 N/A
6:15 am 06:15 Hazy 72 22 N/A N/A N N/A 29.97 1015 5 8 N/A
6:35 am 06:35 Sunny 70 21 N/A N/A NE 3 6 29.97 1015 7 11 N/A
6:55 am 06:55 Hazy 72 22 N/A N/A N N/A 29.97 1015 7 11 N/A
7:15 am 07:15 Sunny 70 21 N/A N/A N N/A 29.98 1015 7 11 N/A
7:35 am 07:35 Sunny 71 21.9 71 21.8 99 99 NNE 3 6 29.98 1015 10 16 N/A
7:55 am 07:55 Sunny 72 22.2 72 22 99 99 N N/A 29.99 1016 10 16 N/A
8:15 am 08:15 Sunny 73 22.9 72 22.2 96 96 N N/A 29.99 1016 10 16 N/A
8:35 am 08:35 Sunny 74 23.5 72 22.4 94 94 N N/A 29.99 1015 10 16 N/A
10:55 am 10:55 Sunny 84 28.7 72 22 67 67 N 6 9 29.97 1015 10 16 N/A
11:35 am 11:35 Sunny 85 29.6 71 21.5 62 62 NNE 7 11 29.98 1015 10 16 N/A
11:55 am 11:55 Partly Cloudy 86 29.8 68 19.9 55 55 NNE 7 11 29.99 1016 10 16 N/A
12:15 pm 12:15 Partly Cloudy 87 30.3 68 20 54 54 ENE 7 11 29.98 1015 10 16 N/A
12:35 pm 12:35 Sunny 86 29.8 68 19.9 55 55 NNE 8 13 29.99 1016 10 16 N/A
12:55 pm 12:55 Sunny 87 30.3 67 19.6 53 53 N 6 9 29.99 1016 7 11 N/A
1:15 pm 13:15 Partly Cloudy 87 30.7 67 19.7 52 52 NNE 9 15 29.98 1015 10 16 N/A
1:35 pm 13:35 Sunny 87 30.5 65 18.5 49 49 NE 3 6 29.98 1015 7 11 N/A
1:55 pm 13:55 Hazy 87 30.7 66 18.8 49 49 N 8 13 29.98 1015 7 11 N/A
2:15 pm 14:15 Sunny 87 30.7 65 18.3 48 48 N 5 7 29.98 1015 10 16 N/A
2:35 pm 14:35 Sunny 88 31 64 17.7 45 45 NNE 8 13 29.98 1015 10 16 N/A
2:55 pm 14:55 Sunny 88 31.3 64 17.6 44 44 N 9 15 29.98 1015 10 16 N/A
3:15 pm 15:15 Sunny 89 31.5 65 18.5 46 46 N 7 11 29.98 1015 10 16 N/A
3:35 pm 15:35 Sunny 88 31.1 66 18.7 48 48 NNE 6 9 29.98 1015 10 16 N/A
3:55 pm 15:55 Partly Cloudy 87 30.4 63 17.1 45 45 N 9 15 29.97 1015 10 16 N/A
4:15 pm 16:15 Sunny 88 31.2 62 16.9 42 42 NNW 8 13 29.97 1015 10 16 N/A
4:35 pm 16:35 Sunny 88 31.3 62 16.5 41 41 NNW 8 13 29.97 1015 10 16 N/A
4:55 pm 16:55 Sunny 88 31.3 64 17.8 44 44 N 9 15 29.97 1015 10 16 N/A
5:15 pm 17:15 Sunny 88 31.1 62 16.7 42 42 NNE 7 11 29.97 1015 10 16 N/A
5:35 pm 17:35 Sunny 88 31.1 62 16.7 42 42 NNE 7 11 29.97 1015 10 16 N/A
5:55 pm 17:55 Sunny 88 30.9 63 17.2 44 44 NNE 9 15 29.96 1015 10 16 N/A
6:15 pm 18:15 Sunny 87 30.7 62 16.9 43 43 N 10 17 29.96 1015 10 16 N/A
6:35 pm 18:35 Sunny 87 30.4 62 16.6 43 43 N 9 15 29.95 1014 10 16 N/A
6:55 pm 18:55 Sunny 86 30.1 63 17.4 46 46 N 8 13 29.95 1014 10 16 N/A
7:15 pm 19:15 Sunny 85 29.6 64 18 50 50 N 5 7 29.96 1015 10 16 N/A
7:35 pm 19:35 Sunny 84 29 65 18.4 53 53 NNW 6 9 29.96 1015 10 16 N/A
7:55 pm 19:55 Sunny 83 28.2 66 18.7 56 56 N 5 7 29.98 1015 10 16 N/A
8:15 pm 20:15 Sunny 81 27.3 67 19.2 61 61 N 5 7 29.98 1015 10 16 N/A
8:35 pm 20:35 Sunny 79 26.1 68 20.2 70 70 N 3 6 29.98 1015 10 16 N/A
8:55 pm 20:55 Sunny 77 25 69 20.5 76 76 N N/A 29.98 1015 10 16 N/A
9:15 pm 21:15 Clear 76 24.3 67 19.6 75 75 N 3 6 29.99 1016 10 16 N/A
9:35 pm 21:35 Clear 72 22.4 70 21 92 92 N 3 6 30.01 1016 10 16 N/A
9:55 pm 21:55 Clear 71 21.4 70 21.1 98 98 N N/A 30.02 1017 10 16 N/A
10:15 pm 22:15 Clear 71 21.6 69 20.5 93 93 N N/A 30.03 1017 10 16 N/A
10:35 pm 22:35 Clear 70 21.2 69 20.5 96 96 N 3 6 30.03 1017 7 11 N/A
10:55 pm 22:55 Clear 70 20.9 68 19.9 94 94 N N/A 30.04 1017 10 16 N/A
11:15 pm 23:15 Clear 68 20.2 67 19.6 96 96 NNE 5 7 30.03 1017 10 16 N/A
11:35 pm 23:35 Clear 69 20.3 67 19.6 96 96 N 5 7 30.03 1017 10 16 N/A
11:55 pm 23:55 Clear 66 19 66 19 100 100 N 3 6 30.04 1017 10 16 N/A

Powered by AerisWeather